Location: Unspecified
(17.6330°N, 0.0000°E)
Time: 11:46:38
(UTC+00:00)

A-11 Canister half - Pass Details

Date: 26 June 2019
Orbit: 1514 x 1686 km, 47.2° (Epoch: 17 August)

Event Time Altitude Azimuth Distance (km) Brightness Sun altitude
Rises 16:16:07 0° 322° (NW) 4,749 12.3 30.9°
Reaches altitude 10° 16:19:22 10° 328° (NNW) 3,742 11.9 30.1°
Maximum altitude 16:28:29 53° 43° (NE) 1,826 9.6 28.1°
Drops below altitude 10° 16:37:23 10° 118° (ESE) 3,665 10.5 26.0°
Sets 16:40:30 0° 123° (ESE) 4,645 11.0 25.3°
